Погода в Мурска-Соботе

Словения     46°39′35″N   16°09′57″E
темп.,
°C
ветер,
м/с
пор.,
м/с
влажн.,
%
обл.,
%
осадки,
мм/ч
давл.,
гПа
погр.,
м
15 апреля, чт
чт1523:00+2ссз365642 0.0 1024117
02:000сз22680 0.0 102529
05:00−1сз33690 0.0 102441
08:00+3сз37551 0.0 1024290
11:00+8с453662 0.0 10232165
14:00+10с3533100 0.0 10222464
17:00+9ссв4436100 0.0 10212226
20:00+5в366098 0.0 1022159
16 апреля, пт
пт1623:00+2св227438 0.0 102333
02:000зсз118441 0.0 102310
05:00−1зсз11864 0.0 102310
08:00+3зюз12693 0.0 1023217
11:00+8ююз12535 0.0 10221016
14:00+11ююв124194 0.0 10212049
17:00+11в324152 0.0 10191817
20:00+6всв48665 0.0 1021158
17 апреля, сб
сб1723:00+3св3780100 0.0 1022122
02:00+2ссв2286100 0.0 102121
05:00+1ссз1191100 0.0 102110
08:00+5ссв2476100 0.0 1021347
11:00+8св6764100 0.1 10191362
14:00+8св6763100 0.2 10181246
17:00+8св6968100 0.1 1018968
20:00+7ссв51072100 0.1 1018393
18 апреля, вс
вс1823:00+7ссв51173100 0.0 1018430
02:00+6ссв51274100 0.0 1017453
05:00+5ссв51279100 0.0 1017500
08:00+6ссв61179100 0.0 1018614
11:00+8ссв6868100 0.0 10181047
14:00+9ссв7973100 0.1 10171060
17:00+9св6969100 0.0 10171028
20:00+8ссв51170100 0.1 1017726
19 апреля, пн
пн1923:00+7с51175100 0.0 1017874
02:00+7с51182100 0.4 1016835
05:00+5ссз3985100 0.0 1016328
08:00+8с51276100 0.1 10151169
11:00+8с61085100 0.4 10151175
14:00+7с5108798 0.9 1015756
17:00+9ссв71178100 0.3 10141063
20:00+8с5118199 0.3 1014801